Погода в Каскате

Россия / Омская область     54°47′54″N   71°07′49″E
темп.,
°C
ветер,
м/с
пор.,
м/с
влажн.,
%
обл.,
%
осадки,
мм/ч
давл.,
гПа
погр.,
м
12 апреля, пн
пн1200:00−1ююз3795100 0.0 1038115
03:00−1зюз3697100 0.0 1037120
06:00−1зюз469994 0.0 1037163
09:000зюз4710089 0.0 1036190
12:00+1зюз49100100 0.0 1035211
15:00+1зюз511100100 0.0 1034228
18:00+1з59100100 0.0 1034218
21:00+2зсз39100100 0.3 1034172
13 апреля, вт
вт1300:00+2ссз38100100 0.3 1035173
03:00+2с4999100 0.0 1037252
06:00−2сз229716 0.0 103927
09:00+1сз35960 0.0 1040110
12:00+3зсз34100100 0.0 1041108
15:00+3з459898 0.0 1041216
18:00+3зюз469645 0.0 1040200
21:00+1зюз47941 0.0 1040105
14 апреля, ср
ср1400:000з369536 0.0 104094
03:000зюз47922 0.0 1038102
06:000зюз498933 0.0 1037156
09:00+2зюз51279100 0.0 1036274
12:00+5зюз6126831 0.0 1034371
15:00+8з7116743 0.0 1032483
18:00+8з5117674 0.0 1030372
21:00+4з49895 0.0 1030130
15 апреля, чт
чт1500:00+4з46895 0.0 102982
03:00+4з45915 0.0 102861
06:00+4зюз34925 0.0 102855
09:00+7зюз47893 0.0 1027164
12:00+12зюз46785 0.0 1026392
15:00+15з567012 0.0 1024734
18:00+15зюз46685 0.0 1022897
21:00+11зюз48867 0.0 1021116
16 апреля, пт
пт1600:00+9зюз468746 0.0 102092
03:00+8зюз36895 0.0 101881
06:00+7зюз35885 0.0 101766
09:00+10зюз467822 0.0 1016204
12:00+14зюз46615 0.0 1014643
15:00+16зюз55505 0.0 10121171
18:00+16з454624 0.0 10101416
21:00+12з236544 0.0 100919